Tracking 17264 objects as of 29-August-2015
HD Live streaming from Space Station

INTELSAT 26 (JCSAT 4)

Track INTELSAT 26 (JCSAT 4) now!
INTELSAT 26 (JCSAT 4) is classified as:


NORAD ID: 24732
Int'l Code: 1997-007A
Perigee: 35,779.2 km
Apogee: 35,807.6 km
Inclination: 6.4 °
Period: 1,436.1 minutes
Semi major axis: 42164 km
RCS: 25.1785 m2 (large)
Launch date: February 17, 1997
Source: International Telecommunications Satellite Organization (ITSO)

12 C-band, 12 Ku-band; relay voice, data, television signals via Ku-band to eastern Asia, Australia, New Zealand, India; via C-band to eastern and southern Asia and Hawaii. Digital TV.
Your satellite tracking list
Your tracking list is empty





NASA's NSSDC Master Catalog

Two Line Element Set (TLE):
1 24732U 97007A   15240.07098338 -.00000023  00000-0  00000+0 0  9996
2 24732 006.3859 055.1813 0003363 101.9840 270.1605 01.00272924 67744

Source of the keplerian elements: AFSPC

N2YO: 277